Location: Unspecified
(49.8670°N, 0.0000°E)
Time: 03:32:39
(UTC+00:00)

S-56A Canister/Altair - Pass Details

Date: 18 June 2019
Orbit: 632 x 2500 km, 38.9° (Epoch: 17 July)

Event Time Altitude Azimuth Distance (km) Brightness Sun altitude
Rises 19:51:54 0° 255° (WSW) 3,705 11.7 1.7°
Reaches altitude 10° 19:55:18 10° 242° (WSW) 2,492 10.5 1.2°
Maximum altitude 19:59:40 24° 190° (S) 1,494 8.8 0.7°
Drops below altitude 10° 20:03:22 10° 137° (SE) 2,062 9.1 0.2°
Enters shadow 20:05:49 - 122° (ESE) 2,893 9.8 -0.1°
Sets 20:05:53 0° 122° (ESE) 2,919 - -0.1°
